Flag for Canada Weather past 2 weeks in Grande Prairie, Alberta, Canada

Now
52 °F

Overcast.


Feels Like: 49 °F
Forecast: 43 / 67 °F
Wind: 8 mph from East

Location: Grande Prairie

Current Time: Aug 23, 2014 at 5:36:42 AM

Latest Report: Aug 23, 2014 at 5:00 AM


Visibility: 25 mi

Pressure: 30.32 "Hg

Humidity: 77%

Dew point: 45 °F

Location of Grande PrairieLocation

Historic Weather in Grande Prairie — Graph

°F

Grande Prairie temperature yesterday

Maximum temperature yesterday: 64 °F (at 5:00 PM)
Minimum temperature yesterday: 34 °F (at 7:00 AM)
Average temperature yesterday: 50 °F

Past Weeks' High & Low Weather Summary

 TemperatureHumidityPressure
High88 °F (Aug 12, 6:00 PM)94% (Aug 13, 3:00 AM)30.41 "Hg (Aug 13, 3:00 AM)
Low34 °F (Aug 22, 7:00 AM)21% (Aug 14, 6:00 PM)29.70 "Hg (Aug 19, 2:00 AM)
Average64 °F59%30.01 "Hg
* Reported Aug 8 4:00 AM — Aug 23 4:00 AM, Grande Prairie, Weather by CustomWeather, © 2014

Note: Actual official high and low records may vary slightly from our data, if they occured in-between our weather recording intervals... More about our weather records

Advertising

Grande Prairie weather history for previous 24 hours

 ConditionsComfort  
Time TempWeatherWind HumidityBarometerVisibility
4:00 AM
Aug 23
52 °FOvercast.7 mph72%30.33 "Hg25 mi
3:00 AM52 °FMostly cloudy.8 mph72%30.33 "Hg25 mi
2:00 AM50 °FMostly cloudy.6 mph82%30.35 "Hg25 mi
1:00 AM48 °FPassing clouds.5 mph82%30.36 "Hg25 mi
12:00 AM50 °FPassing clouds.3 mph76%30.37 "Hg25 mi
11:00 PM
Aug 22
52 °FPassing clouds.6 mph77%30.37 "Hg25 mi
10:00 PM52 °FPartly sunny.7 mph72%30.38 "Hg25 mi
9:00 PM55 °FPartly sunny.8 mph67%30.38 "Hg25 mi
8:00 PM59 °FPartly sunny.14 mph51%30.37 "Hg25 mi
7:00 PM64 °FScattered clouds.7 mph37%30.37 "Hg25 mi
6:00 PM63 °FBroken clouds.9 mph34%30.38 "Hg25 mi
5:00 PM64 °FScattered clouds.6 mph32%30.37 "Hg25 mi
4:00 PM63 °FScattered clouds.7 mph32%30.38 "Hg25 mi
3:00 PM63 °FScattered clouds.6 mph34%30.39 "Hg25 mi
2:00 PM63 °FScattered clouds.3 mph37%30.40 "Hg25 mi
1:00 PM59 °FPassing clouds.8 mph36%30.40 "Hg25 mi
12:00 PM57 °FPassing clouds.8 mph44%30.40 "Hg25 mi
11:00 AM55 °FPassing clouds.6 mph47%30.41 "Hg25 mi
10:00 AM52 °FPassing clouds.5 mph58%30.41 "Hg25 mi
9:00 AM46 °FPassing clouds.2 mph76%30.40 "Hg25 mi
8:00 AM39 °FPassing clouds.5 mph93%30.40 "Hg25 mi
7:00 AM34 °FChilly.6 mph93%30.40 "Hg25 mi
6:00 AM36 °FPassing clouds.7 mph87%30.38 "Hg25 mi
5:00 AM36 °FClear.5 mph87%30.37 "Hg25 mi
Weather by CustomWeather, © 2014

See weather overviewHow to use our weather pages